Welcome to Northern Hawkes Bay. New Zealand.
PWS Header
      nz Flag



Hit Counter


W3C Valid W3C Valid logo


    Wairoa

Select any of the Stations below to visit their websites.










Historic Data from Weather Underground
Select the location of interest below. Wairoa is the default. Please have patience, this Data is slow to load in.
Northern Hawkes Bay Historical Data
Daily Summary for September 4, 2017 Units:  Metric    English   Both
« Previous Day
Next Day »
Daily Weekly Monthly Yearly Custom
  High: Low: Average:
Temperature: 15.8 °C 8.0 °C 11.2 °C
Dew Point: 8.6 °C 6.4 °C 7.6 °C
Humidity: 97% 58% 79%
Wind Speed: 24.5km/h 0.0km/h 7.2km/h
Wind Gust: 31.7km/h - -
Wind- - SW
Pressure: 1012.8 hPa 1008.0 hPa -
Precipitation: 0.0 mm    
Historical Graphs
 
 
Tabular Data for September 4, 2017
Time Temperature Dew Point Pressure Wind Wind Speed Wind Gust Humidity Rainfall Rate (Hourly) solar
00:01 10.5 °C 8.6 °C 1008.4 hPa SW 19.5 km/h 30.6 km/h 88% 0.0 mm 0 W/m2
00:06 10.5 °C 8.4 °C 1008.4 hPa SW 14.8 km/h 29.4 km/h 87% 0.0 mm 0 W/m2
00:11 10.5 °C 8.4 °C 1008.4 hPa WSW 17.2 km/h 29.4 km/h 87% 0.0 mm 0 W/m2
00:16 10.5 °C 8.6 °C 1008.4 hPa SW 17.2 km/h 28.0 km/h 88% 0.0 mm 0 W/m2
00:21 10.4 °C 8.3 °C 1008.4 hPa SW 14.8 km/h 27.0 km/h 87% 0.0 mm 0 W/m2
00:26 10.4 °C 8.3 °C 1008.4 hPa SW 19.5 km/h 27.0 km/h 87% 0.0 mm 0 W/m2
00:31 10.5 °C 8.4 °C 1008.4 hPa SW 18.3 km/h 29.4 km/h 87% 0.0 mm 0 W/m2
00:36 10.6 °C 8.6 °C 1008.4 hPa SW 15.8 km/h 29.4 km/h 87% 0.0 mm 0 W/m2
00:41 10.5 °C 8.4 °C 1008.4 hPa SW 13.4 km/h 29.4 km/h 87% 0.0 mm 0 W/m2
00:46 10.5 °C 8.3 °C 1008.4 hPa SW 14.8 km/h 25.6 km/h 86% 0.0 mm 0 W/m2
00:51 10.5 °C 8.3 °C 1008.4 hPa SW 15.8 km/h 25.6 km/h 86% 0.0 mm 0 W/m2
00:56 10.5 °C 8.3 °C 1008.7 hPa SW 17.2 km/h 24.5 km/h 86% 0.0 mm 0 W/m2
01:01 10.5 °C 8.3 °C 1008.4 hPa SW 12.2 km/h 24.5 km/h 86% 0.0 mm 0 W/m2
01:06 10.5 °C 8.3 °C 1008.7 hPa SW 17.2 km/h 29.4 km/h 86% 0.0 mm 0 W/m2
01:11 10.5 °C 8.3 °C 1008.4 hPa SW 11.1 km/h 29.4 km/h 86% 0.0 mm 0 W/m2
01:16 10.4 °C 8.2 °C 1008.7 hPa SW 11.1 km/h 21.9 km/h 86% 0.0 mm 0 W/m2
01:21 10.5 °C 8.3 °C 1008.4 hPa SW 17.2 km/h 30.6 km/h 86% 0.0 mm 0 W/m2
01:26 10.5 °C 8.1 °C 1008.7 hPa SW 19.5 km/h 30.6 km/h 85% 0.0 mm 0 W/m2
01:31 10.5 °C 8.1 °C 1008.7 hPa SW 15.8 km/h 28.0 km/h 85% 0.0 mm 0 W/m2
01:36 10.5 °C 8.1 °C 1008.7 hPa WSW 15.8 km/h 28.0 km/h 85% 0.0 mm 0 W/m2
01:40 10.4 °C 7.8 °C 1008.4 hPa WSW 13.4 km/h 28.0 km/h 84% 0.0 mm 0 W/m2
01:45 10.4 °C 7.8 °C 1008.4 hPa WSW 13.4 km/h 30.6 km/h 84% 0.0 mm 0 W/m2
01:50 10.4 °C 7.8 °C 1008.4 hPa SW 18.3 km/h 30.6 km/h 84% 0.0 mm 0 W/m2
01:55 10.4 °C 8.0 °C 1008.4 hPa SW 18.3 km/h 31.7 km/h 85% 0.0 mm 0 W/m2
02:00 10.4 °C 8.0 °C 1008.4 hPa SW 11.1 km/h 31.7 km/h 85% 0.0 mm 0 W/m2
02:05 10.4 °C 8.0 °C 1008.4 hPa SW 15.8 km/h 31.7 km/h 85% 0.0 mm 0 W/m2
02:10 10.4 °C 8.0 °C 1008.4 hPa WSW 13.4 km/h 23.3 km/h 85% 0.0 mm 0 W/m2
02:15 10.3 °C 7.9 °C 1008.4 hPa SW 11.1 km/h 24.5 km/h 85% 0.0 mm 0 W/m2
02:20 10.3 °C 7.7 °C 1008.0 hPa SW 17.2 km/h 24.5 km/h 84% 0.0 mm 0 W/m2
02:25 10.3 °C 7.9 °C 1008.4 hPa WSW 12.2 km/h 24.5 km/h 85% 0.0 mm 0 W/m2
02:30 10.3 °C 7.9 °C 1008.0 hPa SW 18.3 km/h 25.6 km/h 85% 0.0 mm 0 W/m2
02:35 10.3 °C 7.9 °C 1008.0 hPa SW 18.3 km/h 25.6 km/h 85% 0.0 mm 0 W/m2
02:40 10.2 °C 7.6 °C 1008.4 hPa SW 15.8 km/h 28.0 km/h 84% 0.0 mm 0 W/m2
02:46 10.3 °C 7.7 °C 1008.4 hPa SW 19.5 km/h 28.0 km/h 84% 0.0 mm 0 W/m2
02:51 10.3 °C 7.7 °C 1008.0 hPa WSW 15.8 km/h 27.0 km/h 84% 0.0 mm 0 W/m2
02:56 10.3 °C 7.7 °C 1008.0 hPa WSW 14.8 km/h 27.0 km/h 84% 0.0 mm 0 W/m2
03:01 10.3 °C 7.7 °C 1008.0 hPa SW 13.4 km/h 27.0 km/h 84% 0.0 mm 0 W/m2
03:06 10.3 °C 7.7 °C 1008.0 hPa SW 11.1 km/h 25.6 km/h 84% 0.0 mm 0 W/m2
03:11 10.2 °C 7.6 °C 1008.0 hPa WSW 13.4 km/h 29.4 km/h 84% 0.0 mm 0 W/m2
03:16 10.2 °C 7.6 °C 1008.0 hPa WSW 8.7 km/h 29.4 km/h 84% 0.0 mm 0 W/m2
03:21 10.2 °C 7.6 °C 1008.0 hPa WSW 17.2 km/h 23.3 km/h 84% 0.0 mm 0 W/m2
03:26 10.2 °C 7.6 °C 1008.0 hPa SW 15.8 km/h 23.3 km/h 84% 0.0 mm 0 W/m2
03:31 10.2 °C 7.6 °C 1008.0 hPa SW 9.7 km/h 24.5 km/h 84% 0.0 mm 0 W/m2
03:36 10.2 °C 7.6 °C 1008.0 hPa SW 21.9 km/h 28.0 km/h 84% 0.0 mm 0 W/m2
03:41 10.2 °C 7.6 °C 1008.0 hPa SW 15.8 km/h 28.0 km/h 84% 0.0 mm 0 W/m2
03:46 10.2 °C 7.6 °C 1008.0 hPa SW 24.5 km/h 30.6 km/h 84% 0.0 mm 0 W/m2
03:51 10.2 °C 7.4 °C 1008.0 hPa SW 17.2 km/h 30.6 km/h 83% 0.0 mm 0 W/m2
04:09 10.2 °C 7.4 °C 1008.0 hPa SW 11.1 km/h 25.6 km/h 83% 0.0 mm 0 W/m2
04:14 10.1 °C 7.5 °C 1008.0 hPa SW 15.8 km/h 25.6 km/h 84% 0.0 mm 0 W/m2
04:19 10.1 °C 7.3 °C 1008.4 hPa SW 8.7 km/h 21.9 km/h 83% 0.0 mm 0 W/m2
04:24 10.1 °C 7.3 °C 1008.4 hPa WSW 12.2 km/h 21.9 km/h 83% 0.0 mm 0 W/m2
04:29 10.1 °C 7.3 °C 1008.4 hPa WSW 12.2 km/h 21.9 km/h 83% 0.0 mm 0 W/m2
04:34 10.1 °C 7.3 °C 1008.4 hPa West 8.7 km/h 21.9 km/h 83% 0.0 mm 0 W/m2
04:39 10.1 °C 7.3 °C 1008.4 hPa West 13.4 km/h 21.9 km/h 83% 0.0 mm 0 W/m2
04:44 10.1 °C 7.3 °C 1008.4 hPa WSW 11.1 km/h 19.5 km/h 83% 0.0 mm 0 W/m2
04:49 10.1 °C 7.3 °C 1008.7 hPa SW 9.7 km/h 21.9 km/h 83% 0.0 mm 0 W/m2
04:54 10.1 °C 7.3 °C 1008.4 hPa WSW 15.8 km/h 21.9 km/h 83% 0.0 mm 0 W/m2
04:59 10.1 °C 7.3 °C 1008.7 hPa West 9.7 km/h 19.5 km/h 83% 0.0 mm 0 W/m2
05:04 10.1 °C 7.3 °C 1008.7 hPa WNW 11.1 km/h 19.5 km/h 83% 0.0 mm 0 W/m2
05:09 10.1 °C 7.3 °C 1008.7 hPa West 9.7 km/h 24.5 km/h 83% 0.0 mm 0 W/m2
05:14 10.1 °C 7.3 °C 1008.7 hPa West 8.7 km/h 24.5 km/h 83% 0.0 mm 0 W/m2
05:19 10.0 °C 7.2 °C 1008.7 hPa West 7.2 km/h 19.5 km/h 83% 0.0 mm 0 W/m2
05:24 10.0 °C 7.2 °C 1008.7 hPa WSW 17.2 km/h 20.9 km/h 83% 0.0 mm 0 W/m2
05:29 10.1 °C 7.3 °C 1008.7 hPa WSW 9.7 km/h 20.9 km/h 83% 0.0 mm 0 W/m2
05:34 10.1 °C 7.3 °C 1009.0 hPa WSW 14.8 km/h 19.5 km/h 83% 0.0 mm 0 W/m2
05:39 10.1 °C 7.3 °C 1009.0 hPa SW 7.2 km/h 18.3 km/h 83% 0.0 mm 0 W/m2
05:44 10.0 °C 7.2 °C 1009.0 hPa SW 12.2 km/h 18.3 km/h 83% 0.0 mm 0 W/m2
05:49 10.0 °C 7.2 °C 1009.0 hPa WSW 11.1 km/h 19.5 km/h 83% 0.0 mm 0 W/m2
05:54 10.0 °C 7.1 °C 1009.0 hPa WSW 12.2 km/h 20.9 km/h 82% 0.0 mm 0 W/m2
05:59 10.0 °C 7.1 °C 1009.4 hPa WSW 12.2 km/h 21.9 km/h 82% 0.0 mm 0 W/m2
06:04 10.0 °C 7.1 °C 1009.4 hPa WSW 6.1 km/h 21.9 km/h 82% 0.0 mm 0 W/m2
06:09 10.0 °C 7.1 °C 1009.4 hPa WSW 11.1 km/h 18.3 km/h 82% 0.0 mm 0 W/m2
06:14 9.9 °C 7.2 °C 1009.4 hPa WSW 9.7 km/h 19.5 km/h 83% 0.0 mm 0 W/m2
06:19 9.9 °C 7.2 °C 1009.4 hPa WSW 12.2 km/h 19.5 km/h 83% 0.0 mm 0 W/m2
06:24 10.0 °C 7.1 °C 1009.4 hPa WSW 12.2 km/h 18.3 km/h 82% 0.0 mm 0 W/m2
06:29 10.0 °C 7.1 °C 1009.4 hPa WSW 6.1 km/h 18.3 km/h 82% 0.0 mm 0 W/m2
06:34 9.9 °C 7.2 °C 1009.4 hPa WSW 9.7 km/h 19.5 km/h 83% 0.0 mm 0 W/m2
06:39 9.9 °C 7.2 °C 1009.7 hPa WSW 7.2 km/h 19.5 km/h 83% 0.0 mm 0 W/m2
06:44 9.9 °C 7.2 °C 1009.4 hPa WSW 7.2 km/h 18.3 km/h 83% 0.0 mm 1 W/m2
06:49 9.9 °C 7.2 °C 1009.7 hPa WSW 7.2 km/h 18.3 km/h 83% 0.0 mm 2 W/m2
06:54 9.9 °C 7.2 °C 1009.7 hPa WSW 9.7 km/h 18.3 km/h 83% 0.0 mm 4 W/m2
06:59 10.0 °C 7.1 °C 1009.7 hPa WSW 9.7 km/h 18.3 km/h 82% 0.0 mm 7 W/m2
07:04 10.0 °C 7.1 °C 1009.7 hPa SW 12.2 km/h 20.9 km/h 82% 0.0 mm 8 W/m2
07:09 10.0 °C 7.1 °C 1009.7 hPa SW 11.1 km/h 20.9 km/h 82% 0.0 mm 11 W/m2
07:14 10.0 °C 7.1 °C 1010.0 hPa WSW 12.2 km/h 19.5 km/h 82% 0.0 mm 11 W/m2
07:19 10.0 °C 7.1 °C 1009.7 hPa West 11.1 km/h 20.9 km/h 82% 0.0 mm 18 W/m2
07:24 10.0 °C 6.9 °C 1010.0 hPa West 6.1 km/h 20.9 km/h 81% 0.0 mm 22 W/m2
07:29 10.1 °C 7.0 °C 1010.0 hPa West 7.2 km/h 20.9 km/h 81% 0.0 mm 24 W/m2
07:34 10.1 °C 7.0 °C 1010.0 hPa WSW 8.7 km/h 20.9 km/h 81% 0.0 mm 31 W/m2
07:39 10.1 °C 7.0 °C 1010.0 hPa WSW 11.1 km/h 20.9 km/h 81% 0.0 mm 37 W/m2
07:44 10.1 °C 7.0 °C 1010.0 hPa SW 13.4 km/h 20.9 km/h 81% 0.0 mm 30 W/m2
07:49 10.1 °C 7.0 °C 1010.0 hPa SW 9.7 km/h 18.3 km/h 81% 0.0 mm 31 W/m2
07:54 10.1 °C 7.2 °C 1010.0 hPa SW 12.2 km/h 18.3 km/h 82% 0.0 mm 38 W/m2
07:59 10.2 °C 7.3 °C 1010.0 hPa SW 12.2 km/h 20.9 km/h 82% 0.0 mm 52 W/m2
08:04 10.2 °C 7.3 °C 1010.0 hPa SW 9.7 km/h 20.9 km/h 82% 0.0 mm 47 W/m2
08:09 10.2 °C 7.3 °C 1010.0 hPa SW 13.4 km/h 20.9 km/h 82% 0.0 mm 58 W/m2
08:14 10.2 °C 7.1 °C 1010.0 hPa WSW 11.1 km/h 19.5 km/h 81% 0.0 mm 58 W/m2
08:19 10.2 °C 7.1 °C 1010.0 hPa West 7.2 km/h 19.5 km/h 81% 0.0 mm 76 W/m2
08:24 10.3 °C 7.4 °C 1010.4 hPa West 9.7 km/h 17.2 km/h 82% 0.0 mm 76 W/m2
08:29 10.3 °C 7.2 °C 1010.4 hPa SW 6.1 km/h 15.8 km/h 81% 0.0 mm 78 W/m2
08:34 10.4 °C 7.1 °C 1010.4 hPa SW 12.2 km/h 19.5 km/h 80% 0.0 mm 86 W/m2
08:39 10.4 °C 7.1 °C 1010.7 hPa SW 11.1 km/h 19.5 km/h 80% 0.0 mm 88 W/m2
08:44 10.4 °C 7.1 °C 1010.7 hPa SW 11.1 km/h 19.5 km/h 80% 0.0 mm 100 W/m2
08:49 10.5 °C 7.2 °C 1010.7 hPa SW 3.5 km/h 18.3 km/h 80% 0.0 mm 95 W/m2
08:54 10.5 °C 7.2 °C 1010.7 hPa SW 9.7 km/h 15.8 km/h 80% 0.0 mm 100 W/m2
08:59 10.5 °C 7.2 °C 1010.4 hPa SW 11.1 km/h 20.9 km/h 80% 0.0 mm 109 W/m2
09:04 10.5 °C 7.0 °C 1010.7 hPa SW 8.7 km/h 20.9 km/h 79% 0.0 mm 97 W/m2
09:21 10.5 °C 7.0 °C 1010.7 hPa WSW 8.7 km/h 18.3 km/h 79% 0.0 mm 122 W/m2
09:26 10.6 °C 6.9 °C 1010.7 hPa SW 7.2 km/h 19.5 km/h 78% 0.0 mm 133 W/m2
09:31 10.7 °C 7.0 °C 1010.7 hPa SW 7.2 km/h 20.9 km/h 78% 0.0 mm 152 W/m2
09:36 10.8 °C 7.3 °C 1010.7 hPa SW 8.7 km/h 20.9 km/h 79% 0.0 mm 170 W/m2
09:41 10.8 °C 6.9 °C 1010.7 hPa SW 9.7 km/h 18.3 km/h 77% 0.0 mm 157 W/m2
09:46 10.8 °C 6.9 °C 1010.7 hPa SW 13.4 km/h 20.9 km/h 77% 0.0 mm 164 W/m2
09:51 10.8 °C 7.1 °C 1011.1 hPa WSW 14.8 km/h 20.9 km/h 78% 0.0 mm 163 W/m2
09:56 11.0 °C 7.1 °C 1011.1 hPa SW 11.1 km/h 19.5 km/h 77% 0.0 mm 152 W/m2
10:01 10.8 °C 7.1 °C 1010.7 hPa SW 9.7 km/h 18.3 km/h 78% 0.0 mm 163 W/m2
10:06 10.8 °C 7.3 °C 1010.7 hPa SW 12.2 km/h 18.3 km/h 79% 0.0 mm 178 W/m2
10:26 11.0 °C 7.3 °C 1010.7 hPa WSW 7.2 km/h 18.3 km/h 78% 0.0 mm 206 W/m2
10:31 11.3 °C 7.4 °C 1010.7 hPa WSW 9.7 km/h 15.8 km/h 77% 0.0 mm 204 W/m2
10:36 11.3 °C 7.1 °C 1010.7 hPa West 9.7 km/h 19.5 km/h 75% 0.0 mm 202 W/m2
10:41 11.4 °C 7.1 °C 1010.7 hPa WSW 5.0 km/h 19.5 km/h 75% 0.0 mm 186 W/m2
10:46 11.4 °C 6.9 °C 1011.1 hPa SW 13.4 km/h 18.3 km/h 74% 0.0 mm 231 W/m2
10:51 11.6 °C 7.3 °C 1010.7 hPa SW 6.1 km/h 18.3 km/h 75% 0.0 mm 232 W/m2
10:56 11.6 °C 7.5 °C 1011.1 hPa WSW 5.0 km/h 17.2 km/h 76% 0.0 mm 221 W/m2
11:01 11.5 °C 7.4 °C 1011.1 hPa West 8.7 km/h 14.8 km/h 76% 0.0 mm 289 W/m2
11:06 11.7 °C 7.4 °C 1011.1 hPa West 7.2 km/h 14.8 km/h 75% 0.0 mm 250 W/m2
11:11 11.8 °C 7.5 °C 1011.1 hPa WSW 11.1 km/h 14.8 km/h 75% 0.0 mm 250 W/m2
11:16 11.7 °C 7.2 °C 1011.1 hPa SW 8.7 km/h 21.9 km/h 74% 0.0 mm 285 W/m2
11:21 11.4 °C 7.3 °C 1011.4 hPa SW 6.1 km/h 21.9 km/h 76% 0.0 mm 259 W/m2
11:26 11.5 °C 7.2 °C 1011.4 hPa WSW 9.7 km/h 18.3 km/h 75% 0.0 mm 185 W/m2
11:31 11.7 °C 7.2 °C 1011.4 hPa SW 8.7 km/h 14.8 km/h 74% 0.0 mm 309 W/m2
11:36 11.9 °C 7.2 °C 1011.1 hPa SW 9.7 km/h 20.9 km/h 73% 0.0 mm 300 W/m2
11:41 12.2 °C 7.1 °C 1011.1 hPa SW 11.1 km/h 20.9 km/h 71% 0.0 mm 286 W/m2
11:46 12.1 °C 7.0 °C 1011.1 hPa SW 8.7 km/h 18.3 km/h 71% 0.0 mm 245 W/m2
11:51 12.0 °C 6.7 °C 1011.1 hPa WSW 8.7 km/h 18.3 km/h 70% 0.0 mm 222 W/m2
11:56 12.0 °C 6.9 °C 1011.1 hPa WSW 8.7 km/h 15.8 km/h 71% 0.0 mm 233 W/m2
12:01 12.0 °C 6.7 °C 1011.1 hPa SW 13.4 km/h 19.5 km/h 70% 0.0 mm 280 W/m2
12:07 12.2 °C 6.7 °C 1011.1 hPa SW 2.6 km/h 19.5 km/h 69% 0.0 mm 241 W/m2
12:12 12.4 °C 7.1 °C 1011.1 hPa SW 8.7 km/h 19.5 km/h 70% 0.0 mm 438 W/m2
12:17 13.1 °C 7.3 °C 1011.1 hPa SW 7.2 km/h 17.2 km/h 68% 0.0 mm 348 W/m2
12:22 13.4 °C 7.2 °C 1010.7 hPa SW 6.1 km/h 13.4 km/h 66% 0.0 mm 290 W/m2
12:27 13.0 °C 6.6 °C 1010.7 hPa WSW 6.1 km/h 15.8 km/h 65% 0.0 mm 434 W/m2
12:32 13.3 °C 6.9 °C 1010.7 hPa WSW 12.2 km/h 15.8 km/h 65% 0.0 mm 471 W/m2
12:37 13.3 °C 6.9 °C 1010.7 hPa SW 14.8 km/h 17.2 km/h 65% 0.0 mm 203 W/m2
12:42 12.8 °C 6.4 °C 1010.7 hPa WSW 8.7 km/h 17.2 km/h 65% 0.0 mm 494 W/m2
12:47 13.2 °C 7.0 °C 1010.7 hPa SW 13.4 km/h 17.2 km/h 66% 0.0 mm 474 W/m2
12:52 13.5 °C 7.1 °C 1010.7 hPa SW 7.2 km/h 17.2 km/h 65% 0.0 mm 408 W/m2
12:57 13.7 °C 7.0 °C 1010.7 hPa SW 11.1 km/h 17.2 km/h 64% 0.0 mm 417 W/m2
13:02 13.5 °C 7.1 °C 1010.7 hPa WSW 7.2 km/h 15.8 km/h 65% 0.0 mm 361 W/m2
13:07 14.0 °C 7.1 °C 1010.4 hPa SSW 9.7 km/h 15.8 km/h 63% 0.0 mm 310 W/m2
13:12 13.7 °C 6.8 °C 1010.4 hPa South 6.1 km/h 19.5 km/h 63% 0.0 mm 403 W/m2
13:17 14.0 °C 7.6 °C 1010.7 hPa SSW 7.2 km/h 19.5 km/h 65% 0.0 mm 400 W/m2
13:22 14.1 °C 7.4 °C 1010.7 hPa SSW 5.0 km/h 15.8 km/h 64% 0.0 mm 71 W/m2
13:27 14.3 °C 7.6 °C 1010.7 hPa SW 11.1 km/h 13.4 km/h 64% 0.0 mm 388 W/m2
13:32 14.1 °C 6.9 °C 1010.4 hPa Calm   13.4 km/h 62% 0.0 mm 385 W/m2
13:37 14.3 °C 6.9 °C 1010.4 hPa South 2.6 km/h 13.4 km/h 61% 0.0 mm 326 W/m2
13:42 14.7 °C 7.5 °C 1010.4 hPa South 5.0 km/h 11.1 km/h 62% 0.0 mm 195 W/m2
13:47 15.3 °C 7.8 °C 1010.4 hPa SSE 2.6 km/h 8.7 km/h 61% 0.0 mm 377 W/m2
13:52 15.0 °C 7.1 °C 1010.4 hPa South 5.0 km/h 11.1 km/h 59% 0.0 mm 228 W/m2
13:57 14.5 °C 7.1 °C 1010.4 hPa South 5.0 km/h 11.1 km/h 61% 0.0 mm 360 W/m2
14:02 14.4 °C 7.4 °C 1010.4 hPa SSW 6.1 km/h 13.4 km/h 63% 0.0 mm 348 W/m2
14:07 14.3 °C 7.3 °C 1010.4 hPa SSW 6.1 km/h 13.4 km/h 63% 0.0 mm 245 W/m2
14:12 14.4 °C 7.4 °C 1010.4 hPa South 6.1 km/h 11.1 km/h 63% 0.0 mm 322 W/m2
14:17 14.7 °C 7.5 °C 1010.4 hPa South 7.2 km/h 11.1 km/h 62% 0.0 mm 190 W/m2
14:22 14.8 °C 7.6 °C 1010.4 hPa South 7.2 km/h 9.7 km/h 62% 0.0 mm 62 W/m2
14:27 14.9 °C 7.7 °C 1010.4 hPa Calm   11.1 km/h 62% 0.0 mm 52 W/m2
14:32 15.3 °C 7.6 °C 1010.0 hPa SSE 2.6 km/h 11.1 km/h 60% 0.0 mm 51 W/m2
14:37 15.0 °C 7.3 °C 1010.0 hPa South 9.7 km/h 12.2 km/h 60% 0.0 mm 51 W/m2
14:42 15.3 °C 8.1 °C 1010.4 hPa South 6.1 km/h 12.2 km/h 62% 0.0 mm 51 W/m2
14:47 15.5 °C 8.0 °C 1010.0 hPa SSE 3.5 km/h 12.2 km/h 61% 0.0 mm 52 W/m2
14:52 15.3 °C 7.8 °C 1010.0 hPa SSE 5.0 km/h 9.7 km/h 61% 0.0 mm 57 W/m2
14:57 15.5 °C 8.0 °C 1010.0 hPa SE 1.1 km/h 9.7 km/h 61% 0.0 mm 149 W/m2
15:02 15.8 °C 7.6 °C 1010.0 hPa ESE 2.6 km/h 8.7 km/h 58% 0.0 mm 205 W/m2
15:07 15.2 °C 7.5 °C 1010.0 hPa ESE 2.6 km/h 8.7 km/h 60% 0.0 mm 267 W/m2
15:12 15.3 °C 7.6 °C 1010.0 hPa ESE 1.1 km/h 8.7 km/h 60% 0.0 mm 261 W/m2
15:18 15.4 °C 7.4 °C 1010.0 hPa SE 3.5 km/h 9.7 km/h 59% 0.0 mm 249 W/m2
15:23 15.8 °C 7.8 °C 1010.0 hPa SE 6.1 km/h 9.7 km/h 59% 0.0 mm 237 W/m2
15:27 15.4 °C 7.2 °C 1010.0 hPa SSE 5.0 km/h 9.7 km/h 58% 0.0 mm 229 W/m2
15:32 15.2 °C 7.7 °C 1010.0 hPa SSE 6.1 km/h 11.1 km/h 61% 0.0 mm 216 W/m2
15:35 15.4 °C 7.9 °C 1010.0 hPa South 5.0 km/h 11.1 km/h 61% 0.0 mm 209 W/m2
15:40 15.2 °C 7.2 °C 1010.0 hPa SSE 2.6 km/h 11.1 km/h 59% 0.0 mm 199 W/m2
15:45 15.6 °C 8.1 °C 1009.7 hPa SE 6.1 km/h 11.1 km/h 61% 0.0 mm 188 W/m2
15:50 15.2 °C 7.7 °C 1009.7 hPa ESE 6.1 km/h 8.7 km/h 61% 0.0 mm 177 W/m2
15:52 15.2 °C 7.7 °C 1009.7 hPa ESE 3.5 km/h 8.7 km/h 61% 0.0 mm 172 W/m2
15:57 14.8 °C 7.6 °C 1009.7 hPa ESE 5.0 km/h 8.7 km/h 62% 0.0 mm 162 W/m2
16:02 14.8 °C 8.1 °C 1010.0 hPa SE 1.1 km/h 9.7 km/h 64% 0.0 mm 150 W/m2
16:07 15.3 °C 8.1 °C 1010.0 hPa SE 1.1 km/h 9.7 km/h 62% 0.0 mm 139 W/m2
16:12 15.2 °C 7.5 °C 1010.0 hPa SE 2.6 km/h 9.7 km/h 60% 0.0 mm 130 W/m2
16:17 15.1 °C 7.7 °C 1010.0 hPa SE 2.6 km/h 9.7 km/h 61% 0.0 mm 121 W/m2
16:22 15.2 °C 8.0 °C 1010.0 hPa SE 2.6 km/h 6.1 km/h 62% 0.0 mm 44 W/m2
16:27 14.1 °C 7.4 °C 1010.0 hPa ESE 2.6 km/h 5.0 km/h 64% 0.0 mm 104 W/m2
16:32 14.7 °C 7.9 °C 1010.0 hPa ESE 1.1 km/h 7.2 km/h 64% 0.0 mm 93 W/m2
16:37 15.3 °C 8.3 °C 1010.4 hPa SE 2.6 km/h 7.2 km/h 63% 0.0 mm 82 W/m2
16:42 15.1 °C 7.9 °C 1010.0 hPa SSE 1.1 km/h 8.7 km/h 62% 0.0 mm 73 W/m2
16:47 14.8 °C 8.1 °C 1010.4 hPa SSE 1.1 km/h 11.1 km/h 64% 0.0 mm 63 W/m2
16:52 14.6 °C 7.9 °C 1010.4 hPa South 3.5 km/h 11.1 km/h 64% 0.0 mm 54 W/m2
16:57 14.5 °C 7.8 °C 1010.4 hPa South 2.6 km/h 8.7 km/h 64% 0.0 mm 45 W/m2
17:02 14.3 °C 7.6 °C 1010.4 hPa South 2.6 km/h 8.7 km/h 64% 0.0 mm 39 W/m2
17:07 14.2 °C 7.7 °C 1010.7 hPa South 1.1 km/h 8.7 km/h 65% 0.0 mm 26 W/m2
17:12 13.2 °C 7.2 °C 1010.7 hPa South 1.1 km/h 8.7 km/h 67% 0.0 mm 25 W/m2
17:17 12.7 °C 7.4 °C 1010.4 hPa Calm   3.5 km/h 70% 0.0 mm 19 W/m2
17:22 12.3 °C 7.2 °C 1010.7 hPa Calm   2.6 km/h 71% 0.0 mm 11 W/m2
17:27 12.0 °C 7.1 °C 1010.7 hPa Calm   2.6 km/h 72% 0.0 mm 7 W/m2
17:32 11.9 °C 7.2 °C 1010.7 hPa Calm   1.1 km/h 73% 0.0 mm 5 W/m2
17:37 11.8 °C 7.3 °C 1010.7 hPa Calm     74% 0.0 mm 1 W/m2
17:42 11.7 °C 7.2 °C 1010.7 hPa Calm     74% 0.0 mm 0 W/m2
17:47 11.6 °C 7.1 °C 1011.1 hPa Calm     74% 0.0 mm 0 W/m2
17:52 11.5 °C 7.1 °C 1011.1 hPa Calm     74% 0.0 mm 0 W/m2
17:57 11.4 °C 7.1 °C 1011.1 hPa Calm     75% 0.0 mm 0 W/m2
18:02 11.3 °C 7.1 °C 1011.1 hPa Calm     75% 0.0 mm 0 W/m2
18:07 11.2 °C 7.1 °C 1011.1 hPa Calm     76% 0.0 mm 0 W/m2
18:12 11.2 °C 7.1 °C 1011.1 hPa Calm     76% 0.0 mm 0 W/m2
18:17 11.1 °C 7.4 °C 1011.1 hPa Calm     78% 0.0 mm 0 W/m2
18:22 11.1 °C 7.6 °C 1011.1 hPa Calm   1.1 km/h 79% 0.0 mm 0 W/m2
18:27 10.9 °C 7.6 °C 1011.1 hPa Calm   1.1 km/h 80% 0.0 mm 0 W/m2
18:32 10.9 °C 7.6 °C 1011.1 hPa Calm     80% 0.0 mm 0 W/m2
18:37 10.8 °C 7.7 °C 1011.1 hPa Calm     81% 0.0 mm 0 W/m2
18:42 10.7 °C 7.8 °C 1011.1 hPa Calm     82% 0.0 mm 0 W/m2
18:47 10.6 °C 7.8 °C 1011.1 hPa Calm     83% 0.0 mm 0 W/m2
18:52 10.6 °C 7.8 °C 1011.1 hPa Calm     83% 0.0 mm 0 W/m2
18:57 10.4 °C 7.8 °C 1011.4 hPa Calm     84% 0.0 mm 0 W/m2
19:02 10.4 °C 7.8 °C 1011.4 hPa Calm     84% 0.0 mm 0 W/m2
19:07 10.3 °C 7.9 °C 1011.4 hPa Calm     85% 0.0 mm 0 W/m2
19:12 10.3 °C 7.9 °C 1011.4 hPa Calm   1.1 km/h 85% 0.0 mm 0 W/m2
19:17 10.4 °C 8.2 °C 1011.4 hPa Calm   1.1 km/h 86% 0.0 mm 0 W/m2
19:22 10.4 °C 8.2 °C 1011.4 hPa Calm   6.1 km/h 86% 0.0 mm 0 W/m2
19:27 10.2 °C 7.9 °C 1011.4 hPa Calm   6.1 km/h 86% 0.0 mm 0 W/m2
19:32 10.1 °C 7.9 °C 1011.4 hPa Calm   3.5 km/h 86% 0.0 mm 0 W/m2
19:37 10.0 °C 7.8 °C 1011.4 hPa Calm   1.1 km/h 86% 0.0 mm 0 W/m2
19:42 9.9 °C 8.0 °C 1011.7 hPa NNW 1.1 km/h 5.0 km/h 88% 0.0 mm 0 W/m2
19:47 9.9 °C 8.0 °C 1011.7 hPa Calm   5.0 km/h 88% 0.0 mm 0 W/m2
19:52 9.8 °C 7.9 °C 1012.1 hPa Calm   2.6 km/h 88% 0.0 mm 0 W/m2
19:57 9.9 °C 8.0 °C 1012.1 hPa NNW 2.6 km/h 3.5 km/h 88% 0.0 mm 0 W/m2
20:02 9.9 °C 8.2 °C 1012.1 hPa NNW 3.5 km/h 6.1 km/h 89% 0.0 mm 0 W/m2
20:07 9.8 °C 8.1 °C 1012.1 hPa NNW 1.1 km/h 6.1 km/h 89% 0.0 mm 0 W/m2
20:12 9.8 °C 8.2 °C 1012.1 hPa NNW 1.1 km/h 5.0 km/h 90% 0.0 mm 0 W/m2
20:17 9.8 °C 8.2 °C 1012.1 hPa NNW 2.6 km/h 5.0 km/h 90% 0.0 mm 0 W/m2
20:22 9.8 °C 8.2 °C 1012.4 hPa NW 2.6 km/h 6.1 km/h 90% 0.0 mm 0 W/m2
20:27 9.8 °C 8.2 °C 1012.1 hPa NW 1.1 km/h 6.1 km/h 90% 0.0 mm 0 W/m2
20:32 9.8 °C 8.2 °C 1012.1 hPa Calm   5.0 km/h 90% 0.0 mm 0 W/m2
20:37 9.8 °C 8.4 °C 1012.1 hPa Calm   5.0 km/h 91% 0.0 mm 0 W/m2
20:39 9.7 °C 8.3 °C 1012.1 hPa Calm   3.5 km/h 91% 0.0 mm 0 W/m2
20:44 9.7 °C 8.3 °C 1012.1 hPa Calm   2.6 km/h 91% 0.0 mm 0 W/m2
20:49 9.6 °C 8.2 °C 1012.1 hPa North 2.6 km/h 5.0 km/h 91% 0.0 mm 0 W/m2
20:54 9.6 °C 8.2 °C 1012.1 hPa NNW 2.6 km/h 6.1 km/h 91% 0.0 mm 0 W/m2
20:59 9.5 °C 8.3 °C 1012.4 hPa NNW 1.1 km/h 6.1 km/h 92% 0.0 mm 0 W/m2
21:04 9.3 °C 8.1 °C 1012.4 hPa North 2.6 km/h 3.5 km/h 92% 0.0 mm 0 W/m2
21:09 9.2 °C 7.9 °C 1012.4 hPa North 1.1 km/h 5.0 km/h 92% 0.0 mm 0 W/m2
21:14 9.1 °C 8.1 °C 1012.4 hPa North 2.6 km/h 5.0 km/h 93% 0.0 mm 0 W/m2
21:19 9.1 °C 8.1 °C 1012.4 hPa North 1.1 km/h 5.0 km/h 93% 0.0 mm 0 W/m2
21:24 9.0 °C 8.1 °C 1012.4 hPa NNW 1.1 km/h 5.0 km/h 94% 0.0 mm 0 W/m2
21:29 9.0 °C 8.1 °C 1012.4 hPa Calm   5.0 km/h 94% 0.0 mm 0 W/m2
21:34 8.9 °C 8.2 °C 1012.4 hPa Calm   2.6 km/h 95% 0.0 mm 0 W/m2
21:39 8.8 °C 8.1 °C 1012.4 hPa Calm   2.6 km/h 95% 0.0 mm 0 W/m2
21:44 8.7 °C 7.9 °C 1012.4 hPa Calm   1.1 km/h 95% 0.0 mm 0 W/m2
21:49 8.7 °C 7.9 °C 1012.4 hPa Calm   1.1 km/h 95% 0.0 mm 0 W/m2
21:54 8.7 °C 7.9 °C 1012.4 hPa Calm   1.1 km/h 95% 0.0 mm 0 W/m2
21:59 8.7 °C 7.9 °C 1012.4 hPa Calm   1.1 km/h 95% 0.0 mm 0 W/m2
22:04 8.7 °C 8.1 °C 1012.4 hPa NW 1.1 km/h 2.6 km/h 96% 0.0 mm 0 W/m2
22:09 8.7 °C 8.1 °C 1012.8 hPa NNW 1.1 km/h 3.5 km/h 96% 0.0 mm 0 W/m2
22:14 8.8 °C 8.2 °C 1012.4 hPa NNW 2.6 km/h 5.0 km/h 96% 0.0 mm 0 W/m2
22:19 8.8 °C 8.2 °C 1012.4 hPa NNW 5.0 km/h 6.1 km/h 96% 0.0 mm 0 W/m2
22:25 8.8 °C 8.2 °C 1012.4 hPa NNW 2.6 km/h 6.1 km/h 96% 0.0 mm 0 W/m2
22:41 8.6 °C 8.0 °C 1012.4 hPa North 1.1 km/h 3.5 km/h 96% 0.0 mm 0 W/m2
22:46 8.6 °C 8.0 °C 1012.4 hPa North 2.6 km/h 3.5 km/h 96% 0.0 mm 0 W/m2
22:51 8.6 °C 8.0 °C 1012.4 hPa NNW 1.1 km/h 3.5 km/h 96% 0.0 mm 0 W/m2
22:56 8.6 °C 8.0 °C 1012.4 hPa NNW 1.1 km/h 3.5 km/h 96% 0.0 mm 0 W/m2
23:01 8.6 °C 8.0 °C 1012.4 hPa NNW 1.1 km/h 3.5 km/h 96% 0.0 mm 0 W/m2
23:06 8.6 °C 8.0 °C 1012.4 hPa Calm   3.5 km/h 96% 0.0 mm 0 W/m2
23:11 8.6 °C 8.0 °C 1012.4 hPa North 1.1 km/h 5.0 km/h 96% 0.0 mm 0 W/m2
23:16 8.6 °C 8.0 °C 1012.4 hPa North 2.6 km/h 5.0 km/h 96% 0.0 mm 0 W/m2
23:21 8.5 °C 7.9 °C 1012.4 hPa North 2.6 km/h 5.0 km/h 96% 0.0 mm 0 W/m2
23:26 8.5 °C 8.1 °C 1012.4 hPa NNW 1.1 km/h 5.0 km/h 97% 0.0 mm 0 W/m2
23:31 8.4 °C 7.9 °C 1012.4 hPa North 2.6 km/h 6.1 km/h 97% 0.0 mm 0 W/m2
23:36 8.4 °C 7.9 °C 1012.4 hPa NNW 2.6 km/h 6.1 km/h 97% 0.0 mm 0 W/m2
23:41 8.3 °C 7.8 °C 1012.4 hPa NW 5.0 km/h 7.2 km/h 97% 0.0 mm 0 W/m2
23:46 8.2 °C 7.8 °C 1012.1 hPa NW 2.6 km/h 7.2 km/h 97% 0.0 mm 0 W/m2
23:51 8.1 °C 7.5 °C 1012.4 hPa NNW 5.0 km/h 7.2 km/h 96% 0.0 mm 0 W/m2
23:56 8.0 °C 7.4 °C 1012.1 hPa NNW 2.6 km/h 6.1 km/h 96% 0.0 mm 0 W/m2
Northern Hawkes Bay. New Zealand Historic Data
Compliments of Weather Underground - 2 mb